Regional Weather Roundup
Issued by NWS Northern Indiana

Home | Current Version | Previous Version | Text Only | Print | Product List | Glossary On
Versions: 1 2 3 4 5 6 7 8 9 10 11 12 13 14 15 16 17 18 19 20 21 22 23 24 25 26 27 28 29 30 31 32 33 34 35 36 37 38 39 40 41 42 43 44 45 46 47 48 49 50
000
ASUS43 KIWX 311610
RWRIWX

KIWX WEATHER ROUNDUP
NATIONAL WEATHER SERVICE NORTHERN INDIANA
1200 PM EDT THU JUL 31 2014

NOTE: "FAIR" INDICATES FEW OR NO CLOUDS BELOW 12,000 FEET WITH NO
SIGNIFICANT WEATHER AND/OR OBSTRUCTIONS TO VISIBILITY.

* THESE STATIONS ARE NOT UNDER NWS QUALITY CONTROL. THEY ALSO MAY NOT
  REPORT WEATHER SUCH AS PRECIPITATION OR FOG.

INZ001>027-311700-
NORTHERN INDIANA

CITY           SKY/WX    TMP DP  RH WIND       PRES   REMARKS
GARY*          SUNNY     79  57  47 SW10      30.06
VALPARAISO     MOSUNNY   77  58  51 W12       30.07
MICHIGAN CITY* PTSUNNY   75  57  53 W10G16    30.06S
LAPORTE*       CLOUDY    74  58  56 SW8       30.08R
KNOX*          PTSUNNY   76  56  50 W8        30.06S
SOUTH BEND     MOSUNNY   76  59  55 SW8       30.06
GOSHEN         SUNNY     75  59  57 W10       30.06
MONTICELLO*    SUNNY     74  62  64 W5        30.07S
LOGANSPORT*    SUNNY     75  59  57 W5        30.09S
ROCHESTER*     SUNNY     79  59  50 W8        30.08S
WARSAW*        SUNNY     75  59  57 W8        30.07S
ANGOLA*        SUNNY     75  66  73 W9        30.06S
FORT WAYNE     MOSUNNY   76  59  55 W12       30.08
HUNTINGTON*    MOSUNNY   76  60  56 W9        30.07S
PERU/GRISSOM   SUNNY     76  65  67 W9        30.08
MARION*        MOSUNNY   74  61  61 W8        30.10S

$$
INZ028>050-311700-
CENTRAL INDIANA

CITY           SKY/WX    TMP DP  RH WIND       PRES   REMARKS
LAFAYETTE      SUNNY     76  60  57 W8        30.08
KOKOMO*        SUNNY     75  61  60 W9        30.09S
MUNCIE*        MOSUNNY   75  59  57 W8        30.10
INDIANAPOLIS   MOSUNNY   75  61  61 SW6       30.10

$$
MIZ043>046-050>051-056>058-064>065-071>073-077>080-311700-
SOUTHWEST LOWER MICHIGAN

CITY           SKY/WX    TMP DP  RH WIND       PRES   REMARKS
BATTLE CREEK   MOSUNNY   75  58  55 W16G22    30.04
BENTON HARBOR  SUNNY     74  57  55 SW14      30.04
COLDWATER*     MOSUNNY   75  58  54 SW10      30.05S
HILLSDALE*     PTSUNNY   74  56  52 W8        30.06S
HOLLAND        MOSUNNY   71  60  68 W12       30.04
GRAND RAPIDS   MOSUNNY   76  60  57 SW12G23   30.02
KALAMAZOO      PTSUNNY   76  58  53 SW15      30.04
STURGIS*       SUNNY     75  59  57 SW9       30.05S
THREE RIVERS*  FAIR      76  60  58 W13G18    30.05S

$$
OHZ001>008-015>018-024>025-311700-
NORTHWEST OHIO

CITY           SKY/WX    TMP DP  RH WIND       PRES   REMARKS
WAUSEON*       FAIR      77  54  44 SW9       30.06S
DEFIANCE       SUNNY     76  55  48 SW8       30.07
FINDLAY        SUNNY     76  53  44 SW9       30.07
TOLEDO EXPRESS SUNNY     75  53  46 SW8       30.06
TOLEDO METCALF SUNNY     75  50  41 SW10      30.07
LIMA           SUNNY     75  58  55 SW9       30.09

$$
&&


USA.gov is the U.S. government's official web portal to all federal, state and local government web resources and services.